TimeHST,TemperatureF,Dew PointF,Humidity,Sea Level PressureIn,VisibilityMPH,Wind Direction,Wind SpeedMPH,Gust SpeedMPH,PrecipitationIn,Events,Conditions,WindDirDegrees,DateUTC
12:53 AM,71.1,64.0,78,30.00,5.0,ESE,5.8,-,N/A,,Haze,110,2012-01-01 10:53:00
1:53 AM,71.1,64.0,78,29.98,10.0,ESE,5.8,-,N/A,,Clear,120,2012-01-01 11:53:00
2:38 AM,71.6,64.4,78,29.97,10.0,East,5.8,-,N/A,,Mostly Cloudy,100,2012-01-01 12:38:00
2:53 AM,71.1,64.9,81,29.98,10.0,East,5.8,-,N/A,,Overcast,80,2012-01-01 12:53:00
3:18 AM,71.6,64.4,78,29.97,10.0,East,5.8,-,N/A,,Scattered Clouds,80,2012-01-01 13:18:00
3:53 AM,70.0,64.0,81,29.98,10.0,East,4.6,-,N/A,,Mostly Cloudy,80,2012-01-01 13:53:00
4:53 AM,70.0,61.0,73,29.99,10.0,ENE,3.5,-,N/A,,Clear,60,2012-01-01 14:53:00
5:53 AM,68.0,60.1,76,30.00,10.0,NE,4.6,-,N/A,,Clear,50,2012-01-01 15:53:00
6:53 AM,68.0,60.1,76,30.02,10.0,NE,4.6,-,N/A,,Clear,50,2012-01-01 16:53:00
7:53 AM,71.1,60.1,68,30.04,10.0,NE,5.8,-,N/A,,Clear,50,2012-01-01 17:53:00
8:53 AM,77.0,61.0,58,30.06,10.0,North,6.9,-,N/A,,Clear,10,2012-01-01 18:53:00
9:53 AM,79.0,62.1,56,30.05,10.0,NW,10.4,-,N/A,,Clear,320,2012-01-01 19:53:00
10:53 AM,78.1,64.0,62,30.04,10.0,Variable,6.9,-,N/A,,Clear,0,2012-01-01 20:53:00
11:53 AM,78.1,66.0,66,30.01,10.0,WSW,6.9,-,N/A,,Clear,250,2012-01-01 21:53:00
12:53 PM,78.1,66.0,66,29.98,10.0,WSW,6.9,-,N/A,,Clear,240,2012-01-01 22:53:00
1:53 PM,79.0,66.0,64,29.96,10.0,WSW,10.4,-,N/A,,Clear,250,2012-01-01 23:53:00
2:53 PM,79.0,66.0,64,29.96,10.0,WSW,9.2,-,N/A,,Clear,250,2012-01-02 00:53:00
3:53 PM,78.1,66.0,66,29.96,10.0,WSW,9.2,-,N/A,,Clear,240,2012-01-02 01:53:00
4:53 PM,78.1,66.0,66,29.98,10.0,South,8.1,-,N/A,,Clear,190,2012-01-02 02:53:00
5:53 PM,77.0,66.0,69,30.00,10.0,South,6.9,-,N/A,,Clear,190,2012-01-02 03:53:00
6:53 PM,75.9,66.9,74,30.03,10.0,South,6.9,-,N/A,,Clear,170,2012-01-02 04:53:00
7:53 PM,75.0,66.9,76,30.05,10.0,SSE,9.2,-,N/A,,Partly Cloudy,150,2012-01-02 05:53:00
8:53 PM,73.9,64.0,71,30.06,10.0,SE,8.1,-,N/A,,Clear,140,2012-01-02 06:53:00
9:53 PM,73.0,64.9,76,30.05,10.0,SE,8.1,-,N/A,,Clear,130,2012-01-02 07:53:00
10:53 PM,73.0,64.0,73,30.05,10.0,SE,6.9,-,N/A,,Clear,130,2012-01-02 08:53:00
11:53 PM,73.0,64.0,73,30.06,10.0,ESE,6.9,-,N/A,,Clear,110,2012-01-02 09:53:00